Theta_e
288 287 287 287 287 287 286 286 286 286 287 287 287 287 287 287 286 286 286 286 286 286 285 284 284 284 284 283 283 282 282 281 281 280 280 280 280 280 279 279 278 278 278 278 277 277 277 277 277 277 276 276 276 275 275 275 275 275 275 275 275 275
288 288 287 287 287 286 286 285 285 285 287 286 286 287 286 285 285 286 285 285 285 285 284 284 284 284 284 283 282 282 282 281 280 280 279 279 279 279 279 278 278 278 277 277 277 276 276 276 276 276 276 275 275 275 275 274 274 274 274 274 274 275
288 288 287 287 285 284 284 284 285 286 285 286 286 286 285 285 285 285 285 285 285 284 283 283 283 283 283 282 282 281 281 280 280 280 279 279 279 278 278 277 277 277 277 276 276 276 276 275 275 275 275 275 274 274 274 273 273 273 273 273 273 273
287 288 285 283 284 284 284 285 285 284 285 286 286 285 285 285 286 285 286 285 285 284 284 283 283 282 282 281 281 281 280 280 280 279 278 278 278 278 277 277 277 276 276 276 275 275 275 275 275 274 274 274 273 272 274 273 272 272 272 272 272 272
288 288 287 286 286 286 285 284 285 285 285 285 285 286 286 286 286 286 285 285 284 283 283 282 282 282 281 281 280 280 280 279 279 278 278 278 277 277 277 276 276 276 276 275 275 275 274 274 274 274 273 273 273 272 272 273 272 272 272 272 271 271
285 284 285 286 286 286 285 285 286 286 285 285 285 285 286 286 286 285 284 284 284 283 282 282 281 281 280 280 280 280 279 278 278 278 278 277 277 276 276 276 276 275 275 275 274 274 274 273 273 273 273 273 272 272 272 272 272 272 271 271 271 271
285 286 286 286 287 286 286 286 285 285 285 285 285 286 286 286 285 284 284 284 283 282 282 281 281 280 280 280 279 279 278 277 277 277 277 276 276 275 275 275 275 275 274 274 274 273 273 273 273 273 272 272 273 273 272 272 271 271 271 271 271 272
288 287 286 286 286 286 286 286 286 285 285 285 285 285 285 285 285 284 284 283 283 282 281 281 280 280 280 279 279 278 277 277 276 276 276 276 275 275 275 275 274 274 274 274 274 274 273 273 273 273 272 272 271 271 271 271 271 271 271 271 270 270
287 288 288 287 287 286 286 286 285 285 285 285 285 285 285 285 284 284 283 283 282 282 281 281 280 280 279 279 278 277 276 276 276 276 275 275 275 274 274 274 274 274 273 273 273 273 273 272 272 271 271 270 270 270 270 270 270 270 270 270 270 270
291 289 289 288 287 286 285 285 285 285 285 285 284 284 284 284 284 283 283 282 282 282 281 281 280 279 279 278 277 276 276 276 275 275 275 275 274 274 274 274 274 273 273 273 272 272 272 271 271 270 270 270 270 269 269 270 269 269 269 269 270 270
291 290 289 288 287 286 285 285 284 284 284 284 283 283 283 283 283 282 282 282 282 282 281 280 279 279 278 277 276 276 275 275 275 275 274 274 274 274 274 274 273 272 272 272 271 271 271 271 270 270 270 269 269 270 269 269 269 269 269 269 270 270
292 292 290 288 287 286 286 285 284 284 284 283 283 282 283 282 282 282 282 282 282 281 281 280 279 278 277 276 276 275 275 275 274 274 274 274 274 273 273 272 272 272 271 270 270 270 270 270 270 272 275 273 270 269 269 269 269 270 270 270 270 271
293 292 290 288 287 287 287 286 285 284 284 283 282 282 282 282 282 282 282 281 281 280 279 278 278 277 276 276 276 275 275 274 274 273 273 273 272 272 271 271 271 270 270 270 270 269 270 270 270 274 276 277 276 271 269 269 270 270 271 271 271 272
291 290 290 290 289 288 287 286 285 284 283 283 283 283 282 282 282 282 281 281 280 279 278 278 277 276 276 275 275 274 274 274 273 273 272 271 270 270 270 270 270 270 271 271 270 270 270 270 273 276 277 277 278 276 270 271 271 272 272 273 272 273
291 291 291 291 291 290 288 287 286 284 284 283 283 282 281 281 282 281 281 280 279 278 278 277 276 276 275 275 275 274 273 273 273 272 271 270 270 269 270 271 270 270 270 270 270 270 270 270 274 276 277 277 278 278 277 274 274 273 273 273 273 273
291 291 291 292 292 292 292 289 287 287 286 284 282 281 281 281 281 280 280 279 279 278 278 277 276 276 275 275 274 274 273 272 272 271 271 270 270 270 270 270 269 270 270 270 270 270 270 270 274 277 277 277 278 278 278 275 274 274 274 274 274 273
290 290 290 290 290 290 290 287 286 286 283 282 282 281 281 281 280 280 279 279 279 278 277 277 276 276 275 275 274 273 272 272 271 270 270 270 270 270 269 269 269 269 269 270 270 270 270 270 274 277 277 277 277 278 278 275 275 274 274 273 272 272
289 290 291 291 290 289 288 288 287 285 284 283 282 281 281 281 280 280 279 279 278 278 278 277 276 276 275 274 273 272 272 272 271 270 269 269 269 269 269 269 269 269 269 270 270 269 269 270 275 276 276 276 277 278 276 275 274 273 272 272 272 272
290 291 291 291 290 289 288 287 285 285 283 282 282 281 281 280 280 279 279 279 278 278 277 277 276 275 274 273 272 272 272 271 270 269 269 268 268 268 268 268 269 269 269 269 269 269 268 269 273 275 275 276 277 276 274 273 272 272 272 272 272 272
290 289 290 290 289 288 287 284 284 284 282 282 281 280 280 280 280 280 279 279 278 278 277 277 276 275 273 272 272 272 272 270 270 269 269 268 267 267 267 268 268 269 269 269 268 268 268 268 271 274 275 275 276 275 273 272 272 272 272 271 272 272
288 288 287 286 287 287 282 283 284 283 282 282 281 281 280 280 280 280 279 279 278 278 277 277 276 275 273 272 272 272 270 269 269 269 268 268 268 267 267 268 267 268 268 268 268 270 268 267 269 273 274 275 275 275 273 272 271 271 271 271 271 272
285 286 284 283 283 281 280 281 283 283 283 281 280 280 280 280 281 281 280 279 278 277 277 277 276 274 273 273 272 271 270 270 268 267 268 268 267 267 267 267 267 267 267 268 267 269 269 267 267 270 274 274 275 276 273 272 271 270 270 271 271 271
283 282 282 282 280 278 278 278 280 281 281 280 279 279 281 281 280 280 279 278 277 276 276 276 275 274 273 272 271 270 269 268 268 267 267 267 266 266 266 266 266 266 266 267 267 267 268 268 267 269 273 274 275 276 275 272 271 271 271 271 271 272
284 282 281 278 278 277 277 277 278 278 278 279 279 280 277 278 278 278 277 276 276 275 275 275 274 273 272 271 270 269 268 267 267 267 266 266 266 265 265 265 265 265 266 266 266 266 266 269 270 268 272 274 275 276 276 273 272 273 272 272 272 272
285 282 278 276 276 278 280 279 278 278 276 277 278 276 275 275 276 276 275 275 274 274 274 273 272 272 271 270 269 268 267 266 265 266 266 266 265 265 264 264 265 265 265 265 266 266 267 268 270 271 270 273 274 275 275 276 275 276 275 272 271 271
284 282 279 276 276 277 281 282 282 280 278 279 276 275 274 275 275 274 274 273 273 273 272 271 271 270 270 270 269 268 267 265 265 265 265 265 265 264 263 264 264 265 264 265 265 266 267 268 268 272 272 272 274 274 275 276 276 276 274 273 271 270
286 286 282 278 277 277 279 281 283 281 280 281 278 277 275 274 274 273 273 273 272 272 271 270 269 269 268 269 269 268 266 265 264 264 264 265 265 264 263 264 264 265 265 265 265 266 267 268 268 269 271 273 273 274 275 275 275 275 275 272 271 270
285 282 283 282 278 279 279 280 282 282 283 280 277 277 275 274 273 273 272 272 271 270 270 269 268 267 268 268 268 268 267 265 264 264 264 264 264 264 264 264 265 265 265 265 266 266 267 268 268 268 269 271 272 273 274 274 274 274 273 273 271 272
286 285 284 284 282 279 279 280 281 283 283 278 278 276 275 274 273 272 271 271 270 269 269 269 267 267 267 267 267 267 266 265 265 265 264 264 264 265 265 265 265 265 265 265 266 266 267 267 267 267 268 268 269 270 271 272 272 272 273 270 269 268
285 285 285 285 285 282 280 280 280 281 281 278 277 276 274 273 273 272 271 270 269 268 268 268 266 266 266 266 266 265 265 265 265 265 265 265 265 265 265 265 265 265 265 265 266 266 266 266 266 266 267 268 269 269 271 271 271 271 269 268 268 265
286 286 285 286 286 285 282 281 281 281 280 279 276 275 274 273 272 272 271 270 268 267 267 268 266 266 266 265 265 266 266 265 265 266 266 267 268 268 267 266 266 266 267 267 266 265 264 264 265 266 270 269 272 270 270 270 270 269 269 270 270 263
285 285 285 286 287 286 284 283 282 281 280 278 276 275 274 273 272 271 270 269 268 267 267 266 266 266 265 265 264 264 265 268 270 268 267 267 270 272 272 271 267 267 267 267 267 267 265 264 266 272 274 273 274 274 274 273 272 272 271 270 269 264
284 284 284 285 286 286 285 284 283 281 279 277 275 274 274 273 271 271 269 268 267 266 266 266 265 265 265 265 264 264 264 265 268 271 271 271 272 272 273 273 273 273 272 268 266 269 271 271 273 274 274 274 274 274 273 272 272 272 271 269 263 256
283 284 284 285 285 285 285 285 283 281 278 276 275 274 274 273 272 270 269 268 267 266 266 266 265 265 265 265 264 264 265 265 265 267 271 273 274 274 274 274 274 274 273 272 270 269 269 273 274 274 274 274 273 273 272 272 272 271 270 268 266 256
278 278 279 280 281 283 284 283 283 280 277 275 274 274 273 273 272 271 270 268 267 266 265 265 265 265 265 264 264 264 265 265 266 265 267 271 275 275 275 275 275 274 274 273 273 273 272 273 274 274 274 273 273 272 272 272 271 270 268 266 257 253
275 275 275 276 277 279 280 282 282 280 276 274 273 273 273 273 272 272 270 268 267 266 265 264 264 264 265 265 265 265 266 266 266 267 268 268 269 271 273 275 275 274 274 274 274 273 274 274 274 274 273 273 272 271 271 270 267 269 267 262 254 254
272 273 274 275 276 277 278 280 282 281 276 274 273 273 272 272 272 271 268 266 266 266 265 265 265 265 265 265 265 265 266 266 267 268 268 268 268 267 267 268 271 274 274 272 273 274 274 274 274 273 272 272 271 270 269 267 259 257 256 255 254 254
270 271 273 274 275 276 277 279 282 279 274 273 272 272 272 272 272 271 269 267 266 266 266 265 265 266 266 265 266 266 267 267 267 267 267 268 267 267 267 267 268 270 273 274 274 274 274 274 273 272 272 270 270 269 266 256 254 253 253 253 252 251
Wind_Speed
11 11 13 14 14 12 10 7 8 10 11 14 15 18 19 15 12 12 12 14 13 12 15 16 15 13 12 10 9 9 12 13 12 12 11 10 10 10 10 10 10 9 8 8 7 7 7 6 6 6 5 5 4 3 4 2 3 3 3 3 3 3
9 11 13 14 16 15 12 11 8 11 14 12 14 13 9 10 14 14 14 14 13 12 10 11 12 11 11 11 11 12 12 12 12 12 12 13 10 11 11 11 11 10 10 8 8 8 7 7 6 6 6 5 5 4 4 3 3 3 3 3 2 2
9 10 8 7 3 3 6 11 15 14 9 11 13 15 15 14 14 14 15 13 14 13 14 15 13 13 10 10 11 12 11 10 11 11 11 11 11 11 11 11 11 10 10 9 8 8 7 7 7 6 6 5 4 4 3 3 3 3 3 3 3 2
9 8 5 5 6 8 11 12 10 11 15 17 14 11 12 15 15 17 17 14 12 14 14 12 10 10 10 11 11 13 12 12 12 11 11 13 11 12 12 11 10 9 10 9 8 8 8 8 7 7 7 6 6 4 4 5 4 4 4 3 4 2
10 9 9 10 12 13 12 11 14 16 17 15 13 16 18 18 17 12 10 11 13 14 11 10 10 10 11 12 11 12 12 11 10 11 13 12 11 9 11 11 11 10 10 9 9 9 8 8 8 7 7 7 7 6 5 5 4 4 4 4 4 3
4 4 7 11 12 12 14 15 14 13 11 13 14 16 19 16 13 13 12 11 12 12 11 12 11 12 12 13 12 12 9 9 8 9 11 11 11 12 9 10 11 10 11 10 10 10 9 9 8 7 7 7 7 6 6 5 5 4 4 4 3 3
7 11 12 13 14 13 12 12 13 13 15 13 15 18 17 13 11 12 14 14 14 13 14 13 13 14 14 14 11 11 10 10 9 9 10 11 11 11 11 10 10 11 11 11 11 10 9 9 9 8 7 6 6 6 5 5 5 4 4 4 3 4
9 9 10 11 11 11 12 12 12 13 14 16 16 15 12 15 13 14 14 14 15 15 16 15 13 15 15 14 12 12 11 10 10 10 8 11 12 11 11 12 11 11 11 10 10 9 9 8 8 7 6 6 5 5 4 4 4 4 3 4 4 3
10 13 13 12 12 11 11 12 14 13 14 14 13 14 14 13 14 15 15 14 15 13 14 14 15 13 12 12 11 10 10 11 11 11 11 10 11 12 12 11 11 8 9 9 9 9 9 8 7 7 7 6 5 5 4 4 4 3 3 4 4 5
12 11 13 12 12 12 11 11 13 14 15 17 15 14 13 12 13 14 14 14 14 15 15 15 14 13 13 11 11 11 11 11 11 12 10 11 12 12 11 12 11 9 8 9 8 8 8 8 7 6 6 5 5 5 4 5 5 4 4 4 5 6
13 12 12 12 11 12 13 12 12 12 11 11 10 11 14 13 13 13 14 14 15 16 15 12 10 11 11 12 12 13 13 13 12 11 11 10 10 9 10 9 10 10 9 8 8 8 7 7 7 6 7 7 7 7 7 6 5 5 5 5 6 6
13 13 12 11 12 14 13 13 13 14 15 14 12 12 12 11 14 15 14 16 16 13 12 12 12 12 12 13 14 14 13 12 12 11 11 10 10 9 9 9 8 9 10 10 8 7 7 7 5 9 14 11 7 6 5 4 4 5 6 6 6 7
14 13 11 12 14 16 16 15 15 13 13 10 10 13 12 13 13 13 15 16 13 12 12 12 13 13 14 14 12 11 12 12 11 11 11 10 9 9 9 9 10 9 9 10 9 9 7 6 6 14 13 14 15 9 6 6 5 6 7 7 7 6
14 12 13 16 17 16 14 13 13 11 13 12 13 13 11 12 13 14 14 13 11 12 14 13 13 13 12 12 13 13 12 12 12 12 11 10 10 9 8 10 10 9 8 6 7 6 6 6 10 15 15 15 15 13 8 6 6 7 7 7 7 6
14 15 16 15 15 14 15 15 12 13 14 13 15 10 12 14 14 13 12 11 13 13 13 12 14 14 13 14 14 13 13 14 13 13 12 13 11 10 11 10 9 8 7 7 8 7 7 6 12 15 15 14 13 13 11 7 7 6 6 6 5 6
10 12 14 16 16 15 16 13 14 16 14 12 8 13 13 13 12 13 13 12 13 14 14 13 14 15 14 13 14 14 14 15 15 14 12 12 10 10 10 10 10 9 9 9 9 8 8 7 12 15 14 13 13 13 11 4 6 5 5 6 6 4
11 12 12 12 14 14 11 9 11 10 6 9 12 12 13 13 13 12 13 13 14 13 13 14 15 15 14 14 15 15 15 16 13 14 13 10 11 13 12 10 10 10 11 10 9 8 8 7 14 15 15 13 13 13 11 5 6 5 5 4 3 5
12 13 15 14 11 10 9 12 11 9 11 10 13 12 13 13 13 13 11 13 14 15 15 15 15 15 15 15 15 16 16 16 16 16 12 13 11 10 10 9 8 11 12 11 10 8 7 7 16 14 14 13 13 13 6 4 5 5 3 2 5 6
12 14 12 10 9 9 10 10 8 10 8 10 10 12 12 12 13 14 15 15 15 15 15 16 16 16 16 16 16 17 17 16 15 13 12 13 13 13 12 13 10 8 9 9 11 9 6 6 11 13 12 12 12 9 3 4 3 3 5 5 6 6
10 10 9 11 10 10 8 6 9 10 10 10 9 11 11 13 15 15 15 16 15 16 15 15 16 17 16 16 18 18 15 13 12 14 13 15 14 13 12 10 8 7 7 11 12 7 8 7 9 13 11 11 11 8 4 4 5 5 4 4 6 6
10 9 7 7 11 9 4 5 8 9 10 10 12 12 12 15 15 14 16 17 15 14 14 14 15 16 17 18 17 16 17 16 15 12 11 11 11 12 11 11 12 10 7 7 9 14 9 7 8 12 11 12 12 9 5 5 4 5 5 4 5 7
12 12 10 8 6 5 0 2 6 8 10 10 9 13 15 16 18 17 11 9 11 12 12 13 15 15 17 17 15 14 14 12 12 13 13 11 10 11 10 11 11 11 7 8 8 8 9 8 6 7 13 12 12 12 6 5 6 5 4 5 6 6
7 6 6 8 7 4 3 1 0 4 5 8 9 14 18 13 7 8 10 10 10 11 13 12 15 16 14 13 14 12 10 10 12 12 11 11 9 9 10 11 11 11 9 7 8 7 7 8 8 8 13 13 13 13 11 5 5 4 6 6 6 5
9 8 6 5 5 4 3 2 1 2 4 3 10 7 2 4 5 6 8 11 12 11 12 13 11 12 12 12 12 14 12 9 9 11 11 9 10 12 12 11 10 9 7 7 7 8 7 9 12 6 12 13 13 12 12 6 5 7 6 6 4 2
11 8 4 1 0 2 3 3 3 4 4 7 4 1 2 3 4 6 7 8 10 11 12 11 13 13 11 13 14 15 14 12 12 11 10 11 11 12 12 11 10 7 8 7 6 6 7 7 9 13 8 12 12 12 11 10 8 10 4 1 1 1
8 9 5 3 2 4 5 7 6 5 6 11 5 6 7 8 6 7 8 8 9 9 10 10 11 11 11 13 13 13 14 14 13 12 10 10 11 11 10 8 8 7 8 9 7 7 7 7 6 11 13 10 13 11 11 10 9 8 2 2 1 0
12 11 7 5 4 4 6 6 9 9 10 8 6 6 6 7 9 9 10 11 11 11 10 10 11 11 11 12 14 15 13 14 14 13 10 11 10 11 11 10 7 6 7 7 8 8 8 7 7 5 10 14 11 12 10 8 7 6 6 1 2 0
9 8 10 10 6 6 5 7 8 10 11 6 9 9 10 10 11 10 10 9 9 10 11 13 11 11 12 14 12 13 13 16 14 13 12 11 11 11 10 9 7 6 6 7 8 9 8 7 6 6 6 8 10 9 9 8 6 5 6 4 1 7
11 11 11 12 7 6 7 8 9 11 4 7 9 10 10 12 12 11 10 11 10 10 11 14 12 12 12 13 11 11 12 12 13 14 14 11 9 9 7 8 9 8 6 7 7 7 8 9 7 7 6 6 6 4 5 4 3 5 4 0 2 2
11 12 12 12 12 7 8 9 11 11 7 6 8 10 11 12 13 14 14 14 11 10 11 12 13 14 12 13 13 14 13 13 14 16 17 18 15 14 13 12 7 9 11 11 10 9 8 7 7 7 7 7 7 6 6 6 6 4 5 2 2 3
14 14 14 15 12 9 9 12 12 10 11 11 11 13 14 13 13 11 12 13 12 13 12 12 13 13 12 12 11 11 12 16 12 12 12 12 13 16 17 15 13 12 11 11 12 12 9 7 8 8 9 9 11 9 6 5 6 5 4 4 6 4
15 15 16 15 13 11 11 12 12 10 10 8 10 12 14 13 12 12 12 12 12 12 13 12 12 12 12 12 12 11 8 7 12 10 12 13 13 13 12 14 14 14 12 11 8 8 12 12 9 15 19 16 14 14 13 11 10 9 7 5 7 5
16 15 16 16 14 13 13 13 11 9 9 10 11 13 14 13 12 11 11 11 12 13 14 13 13 12 12 12 13 12 12 10 10 13 10 11 16 15 17 15 15 20 17 13 11 10 12 14 17 17 15 15 14 13 12 12 10 9 9 8 7 2
16 14 15 13 13 13 13 13 12 10 10 10 11 12 12 13 13 13 13 13 12 11 12 10 11 11 12 11 11 12 13 13 13 10 13 16 16 18 18 18 20 20 19 18 15 13 10 15 15 15 16 15 14 14 14 13 12 11 10 8 7 3
15 16 17 18 18 17 14 12 12 9 8 10 11 12 14 14 14 14 12 11 11 11 12 10 11 11 11 12 13 12 12 13 14 14 13 13 18 19 18 19 20 20 19 20 18 17 13 13 14 17 16 15 15 15 14 14 14 12 11 9 4 4
16 17 19 19 20 18 17 16 14 10 10 11 12 14 16 16 17 16 12 12 13 13 13 12 12 12 12 11 12 12 12 11 11 13 15 15 14 14 15 18 19 19 18 18 18 17 16 16 17 17 16 15 15 15 15 14 10 13 11 8 3 1
20 18 20 19 18 17 17 18 17 12 9 11 13 15 15 15 14 11 11 15 13 12 13 12 12 13 12 12 13 13 12 12 12 13 15 16 16 16 15 12 12 17 19 15 15 16 17 17 17 16 15 15 15 15 15 14 8 6 4 3 0 0
20 21 19 19 16 18 18 19 16 8 8 11 13 15 16 15 14 12 10 11 15 12 12 13 14 14 14 14 13 12 11 11 12 13 13 12 13 14 13 11 9 9 16 21 17 18 18 17 16 16 15 14 14 15 13 7 6 6 2 1 1 1
Wind_Direction
210 202 204 204 207 210 209 197 189 196 201 205 204 206 208 202 196 200 205 203 206 204 206 204 202 199 195 191 183 179 183 181 176 172 168 155 159 154 152 153 154 154 155 153 153 152 151 145 139 133 130 133 138 140 157 170 174 207 230 232 227 240
219 208 208 203 202 201 194 185 185 204 208 202 209 214 204 196 200 201 205 206 205 207 205 208 206 200 193 185 180 186 190 183 174 167 163 166 155 159 155 155 156 156 155 157 154 154 149 144 140 139 139 139 148 155 164 185 184 215 230 237 219 211
223 228 228 234 241 191 178 185 195 202 195 212 213 207 204 204 205 199 208 201 205 202 203 204 197 197 188 182 187 186 187 181 178 175 163 148 164 153 157 157 158 157 156 155 157 155 154 148 149 147 144 145 149 154 168 184 190 213 233 223 243 228
230 232 223 211 198 200 198 199 190 194 203 209 203 203 208 209 209 205 205 200 200 203 206 202 195 191 185 186 187 190 185 180 178 168 158 165 158 159 157 158 157 156 154 154 155 155 153 153 151 149 146 152 154 166 167 179 193 214 228 224 241 234
225 222 214 205 206 210 203 191 196 202 205 200 201 202 210 208 212 206 199 198 199 204 200 190 193 190 188 189 192 194 187 180 171 168 165 161 156 158 158 157 156 157 154 154 157 156 158 158 156 156 153 159 161 170 179 179 188 204 216 216 226 227
222 210 218 216 215 213 209 204 205 208 203 202 201 207 214 208 204 197 197 197 201 198 191 193 191 186 189 193 194 192 184 174 171 168 166 160 155 157 156 155 156 155 159 158 161 162 160 159 156 156 158 160 164 171 180 181 186 191 188 203 217 211
215 218 216 216 218 216 213 210 207 203 206 201 205 213 211 204 196 192 196 196 196 192 194 194 188 191 190 194 187 187 174 173 168 171 167 159 159 158 153 157 158 159 162 166 166 162 161 160 156 156 157 158 160 168 172 172 162 180 197 211 219 239
222 229 229 228 226 216 213 213 211 210 207 205 206 209 199 203 194 199 195 196 193 194 192 191 190 193 193 187 183 179 173 168 169 168 168 166 161 159 163 161 167 167 166 162 160 157 154 151 152 154 153 153 152 155 164 162 173 181 192 211 213 213
237 229 230 227 224 218 217 211 210 213 212 214 210 209 203 198 193 196 194 193 196 193 194 188 192 189 187 185 176 164 165 169 168 169 170 169 163 163 164 166 162 164 157 157 153 155 151 148 147 148 150 151 152 157 165 171 172 185 186 205 218 234
240 234 233 229 229 223 219 217 216 213 209 210 207 201 196 194 192 193 193 190 194 196 194 194 187 180 180 174 164 164 166 166 169 172 167 164 168 169 167 164 162 157 153 153 150 147 143 144 143 145 147 148 153 160 171 184 193 203 212 209 224 232
240 238 235 232 231 226 223 221 221 219 222 221 206 195 201 191 186 189 191 192 196 198 192 181 176 175 167 166 163 166 168 169 168 165 165 167 166 166 165 157 151 149 145 141 139 137 139 145 154 153 157 161 170 170 184 186 189 197 209 224 227 234
238 237 236 233 227 226 223 220 220 216 213 213 201 197 199 173 190 188 191 195 199 191 179 175 171 170 166 166 171 170 166 164 164 163 165 167 164 158 153 149 146 146 145 141 140 140 145 154 157 176 180 180 171 175 177 183 191 204 215 223 237 241
240 241 237 234 230 226 223 219 218 217 218 211 196 199 189 182 187 190 192 199 191 178 171 170 173 166 172 173 166 165 163 164 162 163 163 160 156 153 150 145 145 144 147 148 151 155 158 165 172 185 191 191 188 178 179 178 193 201 217 222 228 243
246 240 233 233 231 226 222 223 221 212 215 204 201 196 175 182 187 191 195 191 175 173 173 174 167 169 171 166 169 166 165 159 160 162 160 153 150 148 144 150 152 143 137 137 136 147 161 170 187 190 192 195 197 185 175 182 190 204 211 229 239 242
236 230 233 236 234 227 223 219 214 211 213 201 205 165 174 185 188 189 187 180 176 176 174 169 170 171 169 173 167 164 162 162 162 161 158 162 157 149 156 154 144 144 141 146 152 161 170 173 192 192 192 196 198 202 193 178 190 200 213 226 233 255
243 235 233 234 234 229 230 217 210 216 211 197 163 171 181 179 186 184 184 177 179 177 175 172 171 174 173 167 165 164 166 166 171 167 162 154 155 156 154 148 145 152 153 159 161 162 175 174 191 191 193 193 199 202 206 173 191 208 225 240 244 246
235 241 245 244 237 236 231 224 214 214 169 164 174 178 173 183 181 183 180 180 180 176 175 175 174 174 170 169 167 168 171 171 165 164 166 161 159 158 161 159 156 161 163 166 166 163 170 176 189 190 190 192 196 201 205 184 197 199 198 205 247 276
231 229 236 237 237 237 217 221 209 185 194 170 174 176 179 178 181 183 177 182 183 182 179 175 176 173 170 170 170 171 173 173 170 167 163 160 162 162 159 162 158 161 167 167 166 159 162 175 187 186 189 191 194 199 199 177 187 181 208 227 244 247
236 237 239 245 235 227 222 218 183 184 164 170 178 172 175 173 181 185 186 188 185 184 180 178 175 174 173 173 172 177 175 172 169 166 162 162 166 166 171 170 169 161 158 151 146 143 152 165 186 186 187 192 196 199 165 172 170 211 216 231 232 242
280 269 255 253 254 238 227 181 173 168 170 175 169 167 177 181 192 189 187 191 187 183 179 178 175 174 173 174 180 179 175 170 167 169 169 168 166 171 172 166 142 133 138 146 148 156 154 160 184 186 187 191 197 195 168 188 193 201 214 231 235 237
298 278 270 256 254 258 183 168 161 162 178 175 175 177 177 194 196 188 192 193 183 178 177 176 176 176 176 179 181 175 172 173 173 166 166 169 167 167 166 165 162 160 136 145 149 171 164 151 179 186 185 189 196 198 172 182 183 211 222 226 241 242
341 340 346 343 329 8 15 140 166 178 180 182 169 180 194 198 199 196 184 165 169 173 172 176 178 178 178 180 175 175 174 165 160 169 169 168 167 165 164 159 159 150 141 157 155 171 164 159 167 186 184 190 195 199 185 188 205 210 212 239 241 254
4 354 349 348 350 22 51 39 284 221 199 177 181 199 207 199 166 153 165 163 164 172 176 176 180 179 179 174 170 163 160 166 167 162 167 163 161 159 157 158 154 154 152 152 161 159 159 157 156 175 180 186 191 200 204 174 198 202 226 231 246 241
341 348 360 359 9 25 40 65 81 19 348 292 228 242 23 87 140 137 146 162 170 172 175 177 174 170 167 163 157 163 166 162 159 164 163 161 159 160 158 157 157 153 141 147 156 164 160 168 170 166 181 184 192 199 207 189 202 221 223 235 224 267
325 324 316 307 150 134 137 124 171 174 172 212 243 6 101 75 125 145 153 158 167 174 174 172 168 167 166 168 167 163 162 158 158 163 165 162 162 160 158 159 157 139 142 149 159 164 166 167 173 173 176 184 188 194 208 214 223 239 230 191 230 210
301 295 274 243 209 178 165 168 190 201 204 229 177 145 144 155 140 149 159 164 167 168 171 169 166 164 166 167 164 165 160 162 161 160 165 167 162 158 155 159 155 143 147 152 158 165 166 166 161 178 173 178 186 196 204 220 233 244 227 202 147 144
297 296 281 249 226 209 194 189 193 199 216 219 160 165 154 158 161 159 172 173 172 172 166 161 167 167 167 169 167 166 165 160 159 160 168 164 166 161 156 161 164 157 152 150 159 161 164 164 153 154 175 178 186 193 202 212 226 245 263 282 122 118
298 286 285 281 245 233 214 211 198 203 226 175 172 170 167 159 167 175 173 172 171 172 163 164 167 167 169 171 175 175 170 164 163 162 161 165 166 164 159 155 155 150 155 159 158 162 158 150 145 153 170 182 186 189 192 198 217 244 260 259 296 287
300 293 285 283 270 231 240 226 226 230 225 171 177 169 166 166 167 171 169 175 173 168 173 174 174 171 171 174 175 173 171 168 164 162 165 165 161 162 153 148 152 156 158 158 158 148 154 155 159 168 175 170 173 171 182 184 196 241 233 101 292 59
290 286 283 277 275 249 237 233 234 230 211 181 170 169 167 174 178 179 178 174 170 175 179 184 176 173 175 180 173 166 174 178 173 169 173 175 169 159 163 161 158 163 163 162 161 160 155 163 164 177 180 178 171 178 183 178 180 176 125 184 134 108
289 282 278 273 269 254 234 237 236 230 211 194 175 168 174 184 185 179 175 174 171 178 181 179 178 183 178 177 177 190 190 181 178 171 168 176 169 168 164 166 173 171 168 162 161 159 158 163 179 186 186 185 175 177 168 158 139 142 151 204 141 119
285 282 279 275 272 262 250 245 238 226 214 193 178 175 181 181 177 181 182 180 182 179 178 182 181 181 177 175 173 172 179 195 178 171 165 167 176 174 177 170 168 166 159 157 162 164 163 167 173 182 180 183 178 163 149 148 157 166 153 147 89 103
294 287 279 276 276 269 262 256 248 227 205 191 185 183 187 175 179 187 186 180 189 186 182 179 179 181 179 175 170 170 167 161 172 178 171 164 165 169 163 163 157 153 154 148 143 152 151 156 166 171 175 164 154 152 144 142 148 146 133 112 95 62
308 304 301 297 288 278 271 264 255 235 208 192 188 186 184 183 182 189 193 192 188 174 179 180 178 174 175 174 172 173 169 163 152 159 161 158 159 156 155 153 153 151 148 146 144 147 153 160 165 162 155 151 147 144 143 141 138 131 115 110 111 110
311 309 307 303 301 298 291 275 263 241 208 194 188 185 189 191 193 196 193 185 175 174 176 173 175 177 175 173 172 177 176 167 161 150 148 153 152 148 146 147 147 147 149 149 151 155 160 160 158 153 149 147 144 140 138 134 126 119 106 106 91 124
298 293 291 289 290 292 290 281 267 242 206 196 189 192 195 197 199 200 189 181 177 172 176 176 175 175 178 177 176 177 172 168 159 151 147 144 145 144 144 147 148 147 145 149 154 159 161 158 153 149 146 143 140 137 134 123 112 103 96 103 134 167
297 290 286 286 287 287 286 281 272 251 205 194 190 193 200 201 198 195 186 176 171 176 176 174 174 176 175 175 176 175 171 164 162 155 152 151 149 145 142 146 149 154 151 152 153 158 159 154 150 147 144 140 135 128 119 105 91 78 43 38 42 202
290 287 286 287 286 285 282 279 278 262 192 195 191 195 199 199 195 189 180 178 177 173 174 174 178 177 177 175 174 171 165 159 156 156 153 147 142 141 139 133 135 138 151 150 153 154 152 150 148 145 140 136 133 133 120 98 113 103 141 167 243 216